Location: Unspecified
(0.0000°N, 0.0000°E)
Time: 19:31:43
(UTC+00:00)

BlueWalker 3 - Pass Details

Date: 21 March 2026
Orbit: 449 x 457 km, 53.2° (Epoch: 21 April)

Event Time Altitude Azimuth Distance (km) Brightness Sun altitude
Rises 04:58:53 0° 352° (N) 2,450 5.4 -17.1°
Reaches altitude 10° 05:01:31 10° 12° (NNE) 1,580 4.6 -16.4°
Maximum altitude 05:03:58 18° 56° (NE) 1,194 4.6 -15.8°
Drops below altitude 10° 05:06:25 10° 100° (E) 1,581 5.8 -15.2°
Sets 05:09:03 0° 120° (ESE) 2,454 6.5 -14.6°
